Date String (YYYY-MM-DD hh:mm:ss) UTC,Instrument flags,Ambient pressure (hPa),Sample flow (lpm),Bypass flow (lpm),Sample temperature (°C),Ambient temperature (°C),ASC tube jacket temperature (°C),LED temperature (°C),Box temperature (°C),Sample RH (%),Span deviation,Mass concentration (μg/m³),Mass concentration (μg/m³),Mass concentration (μg/m³)
DateTimeUTC,F1_M11,P_M11,Q1_M11,Q2_M11,T1_M11,T2_M11,T3_M11,T4_M11,T5_M11,U1_M11,ZSPAN_M11,X0_M11,X2_M11,X1_M11
2022-01-14 15:00:00,,0826.5,4.99,0.00,23.9,23.2,00.0,32.9,25.6,11.3,0000.0,0004.34,0002.19,0001.90
2022-01-14 15:01:00,,0826.4,5.02,0.00,23.9,23.1,00.0,32.9,25.6,11.5,0000.0,0003.76,0001.86,0001.61
2022-01-14 15:02:00,,0826.5,4.99,0.00,23.8,23.1,00.0,32.9,25.6,11.5,0000.0,0003.57,0001.69,0001.38
2022-01-14 15:03:00,,0826.6,4.99,0.00,23.8,23.1,00.0,32.9,25.6,11.5,0000.0,0003.80,0001.63,0001.28
2022-01-14 15:04:00,,0826.5,5.01,0.00,23.8,23.1,00.0,32.9,25.6,11.4,0000.0,0003.96,0001.62,0001.23
2022-01-14 15:05:00,,0826.5,5.01,0.00,23.8,23.1,00.0,32.9,25.6,11.5,0000.0,0004.13,0001.60,0001.17
2022-01-14 15:06:00,,0826.5,4.98,0.00,23.8,23.1,00.0,32.9,25.6,11.5,0000.0,0004.02,0001.46,0001.05
2022-01-14 15:07:00,,0826.5,5.01,0.00,23.8,23.1,00.0,32.8,25.6,11.5,0000.0,0004.33,0001.33,0000.93
2022-01-14 15:08:00,,0826.5,5.00,0.00,23.8,23.1,00.0,32.8,25.6,11.6,0000.0,0004.32,0001.22,0000.86
2022-01-14 15:09:00,,0826.5,5.01,0.00,23.8,23.1,00.0,32.8,25.6,11.7,0000.0,0003.19,0001.18,0000.81
2022-01-14 15:10:00,,0826.5,4.99,0.00,23.8,23.1,00.0,32.8,25.5,11.7,0000.0,0003.46,0001.13,0000.75
2022-01-14 15:11:00,,0826.5,5.01,0.00,23.8,23.1,00.0,32.8,25.5,11.7,0000.0,0003.52,0001.12,0000.73
2022-01-14 15:12:00,,0826.5,4.99,0.00,23.8,23.0,00.0,32.8,25.5,11.8,0000.0,0003.58,0001.12,0000.72
2022-01-14 15:13:00,,0826.5,5.01,0.00,23.8,23.0,00.0,32.8,25.5,11.9,0000.0,0003.52,0001.09,0000.72
2022-01-14 15:14:00,,0826.5,5.00,0.00,23.8,23.0,00.0,32.8,25.5,12.0,0000.0,0003.24,0001.06,0000.72
2022-01-14 15:15:00,,0826.6,5.00,0.00,23.8,23.0,00.0,32.8,25.5,12.1,0000.0,0003.14,0001.05,0000.71
2022-01-14 15:16:00,,0826.5,4.99,0.00,23.7,23.0,00.0,32.8,25.5,12.1,0000.0,0003.38,0001.05,0000.72
2022-01-14 15:17:00,,0826.5,5.01,0.00,23.7,23.0,00.0,32.8,25.5,12.2,0000.0,0003.93,0001.03,0000.71
2022-01-14 15:18:00,,0826.5,4.99,0.00,23.7,23.0,00.0,32.8,25.5,12.3,0000.0,0003.35,0000.97,0000.70
2022-01-14 15:19:00,,0826.5,5.01,0.00,23.7,23.0,00.0,32.8,25.5,12.3,0000.0,0003.21,0000.96,0000.68
2022-01-14 15:20:00,,0826.6,4.99,0.00,23.7,23.0,00.0,32.8,25.5,12.3,0000.0,0003.28,0000.98,0000.67
2022-01-14 15:21:00,,0826.6,5.01,0.00,23.7,23.0,00.0,32.8,25.5,12.4,0000.0,0003.07,0000.99,0000.68
2022-01-14 15:22:00,,0826.6,4.98,0.00,23.7,23.0,00.0,32.8,25.5,12.4,0000.0,0003.88,0001.01,0000.68
2022-01-14 15:23:00,,0826.6,5.01,0.00,23.7,23.0,00.0,32.8,25.5,12.3,0000.0,0004.32,0001.04,0000.67
2022-01-14 15:24:00,,0826.6,5.00,0.00,23.7,23.0,00.0,32.7,25.5,12.3,0000.0,0004.49,0001.07,0000.68
2022-01-14 15:25:00,,0826.6,5.00,0.00,23.7,23.0,00.0,32.7,25.5,12.4,0000.0,0004.70,0001.14,0000.67
2022-01-14 15:26:00,,0826.6,5.01,0.00,23.7,23.0,00.0,32.7,25.5,12.5,0000.0,0005.32,0001.15,0000.66
2022-01-14 15:27:00,,0826.6,5.01,0.00,23.7,23.0,00.0,32.7,25.5,12.5,0000.0,0005.30,0001.15,0000.64
2022-01-14 15:28:00,,0826.6,4.98,0.00,23.7,23.0,00.0,32.7,25.5,12.4,0000.0,0004.80,0001.18,0000.64
2022-01-14 15:29:00,,0826.6,5.00,0.00,23.7,23.0,00.0,32.7,25.5,12.3,0000.0,0004.99,0001.24,0000.64
2022-01-14 15:30:00,,0826.6,5.02,0.00,23.7,23.0,00.0,32.7,25.5,12.3,0000.0,0005.08,0001.28,0000.64
2022-01-14 15:31:00,,0826.7,5.00,0.00,23.7,23.0,00.0,32.7,25.5,12.2,0000.0,0005.11,0001.30,0000.63
2022-01-14 15:32:00,,0826.7,5.00,0.00,23.7,23.0,00.0,32.7,25.5,12.2,0000.0,0005.27,0001.31,0000.62
2022-01-14 15:33:00,,0826.7,5.01,0.00,23.7,23.0,00.0,32.7,25.5,12.2,0000.0,0005.20,0001.28,0000.62
2022-01-14 15:34:00,,0826.8,5.00,0.00,23.7,23.0,00.0,32.7,25.5,12.3,0000.0,0005.40,0001.26,0000.61
2022-01-14 15:35:00,,0826.8,4.99,0.00,23.7,23.0,00.0,32.7,25.5,12.4,0000.0,0005.98,0001.24,0000.60
2022-01-14 15:36:00,,0826.8,5.01,0.00,23.8,23.0,00.0,32.7,25.5,12.4,0000.0,0005.86,0001.21,0000.61
2022-01-14 15:37:00,,0826.9,5.00,0.00,23.7,23.0,00.0,32.7,25.6,12.5,0000.0,0005.43,0001.25,0000.61
2022-01-14 15:38:00,,0826.8,5.00,0.00,23.8,23.0,00.0,32.7,25.6,12.4,0000.0,0005.06,0001.25,0000.62
2022-01-14 15:39:00,,0826.9,4.99,0.00,23.8,23.0,00.0,32.7,25.6,12.4,0000.0,0005.08,0001.27,0000.62
2022-01-14 15:40:00,,0826.9,5.01,0.00,23.8,23.1,00.0,32.7,25.6,12.4,0000.0,0005.10,0001.23,0000.63
2022-01-14 15:41:00,,0827.0,5.01,0.00,23.8,23.1,00.0,32.7,25.6,12.4,0000.0,0005.08,0001.19,0000.63
2022-01-14 15:42:00,,0826.9,5.00,0.00,23.8,23.1,00.0,32.7,25.5,12.4,0000.0,0004.88,0001.15,0000.63
2022-01-14 15:43:00,,0827.0,5.01,0.00,23.8,23.1,00.0,32.7,25.5,12.3,0000.0,0005.13,0001.14,0000.64
2022-01-14 15:44:00,,0827.0,5.00,0.00,23.8,23.1,00.0,32.7,25.5,12.4,0000.0,0004.78,0001.15,0000.64
2022-01-14 15:45:00,,0827.0,4.98,0.00,23.8,23.1,00.0,32.7,25.5,12.4,0000.0,0004.09,0001.14,0000.64
2022-01-14 15:46:00,,0827.0,5.02,0.00,23.8,23.1,00.0,32.7,25.6,12.3,0000.0,0003.40,0001.14,0000.64
2022-01-14 15:47:00,,0827.0,4.99,0.00,23.8,23.1,00.0,32.7,25.5,12.4,0000.0,0005.27,0001.14,0000.65
2022-01-14 15:48:00,,0827.0,5.00,0.00,23.8,23.1,00.0,32.7,25.6,12.4,0000.0,0005.28,0001.05,0000.65
2022-01-14 15:49:00,,0827.1,5.00,0.00,23.8,23.1,00.0,32.7,25.6,12.4,0000.0,0005.59,0001.07,0000.65
2022-01-14 15:50:00,,0827.1,5.01,0.00,23.8,23.1,00.0,32.7,25.6,12.5,0000.0,0006.91,0001.07,0000.64
2022-01-14 15:51:00,,0827.1,5.00,0.00,23.8,23.0,00.0,32.8,25.6,12.5,0000.0,0007.37,0001.12,0000.65
2022-01-14 15:52:00,,0827.4,4.99,0.00,23.8,23.0,00.0,32.8,25.6,12.5,0000.0,0007.72,0001.19,0000.64
2022-01-14 15:53:00,,0827.3,5.02,0.00,23.8,23.0,00.0,32.8,25.6,12.5,0000.0,0008.43,0001.25,0000.64
2022-01-14 15:54:00,,0827.1,4.99,0.00,23.8,23.0,00.0,32.8,25.6,12.3,0000.0,0009.48,0001.37,0000.65
2022-01-14 15:55:00,,0827.3,5.01,0.00,23.8,23.1,00.0,32.8,25.5,12.2,0000.0,0009.71,0001.50,0000.65
2022-01-14 15:56:00,,0827.5,5.00,0.00,23.8,23.0,00.0,32.8,25.5,12.1,0000.0,0010.27,0001.61,0000.64
2022-01-14 15:57:00,,0827.4,4.99,0.00,23.7,23.0,00.0,32.8,25.5,12.0,0000.0,0012.12,0001.64,0000.64
2022-01-14 15:58:00,,0827.2,5.01,0.00,23.7,23.0,00.0,32.8,25.5,12.2,0000.0,0011.84,0001.65,0000.62
2022-01-14 15:59:00,,0827.3,5.00,0.00,23.7,23.0,00.0,32.7,25.5,12.3,0000.0,0011.74,0001.67,0000.61
